FW3743 Weather Reports


Display with metric or nautical units.
time (UTC)temp
F
wind
direction
speed
MPH
gust
MPH
rain 1hr
in
rain 24hr
in
rain mn
in
humidity
%
barometer
mb
20260903230253 77 0.0 0.0 0.00 0.22 0.00 77 1012.5
20260903225233 77 0.0 0.0 0.00 0.22 0.00 77 1012.7
20260903224233 77 0.0 0.0 0.00 0.22 0.00 78 1012.4
20260903223233 78 0.0 0.0 0.00 0.22 0.00 77 1012.3
20260903222233 78 0.0 0.0 0.00 0.22 0.00 76 1012.4
20260903221233 79 0.0 0.0 0.00 0.22 0.00 76 1012.6
20260903220233 80 0.0 0.0 0.00 0.22 0.00 75 1012.3
20260903215233 80 0.0 0.0 0.00 0.22 0.00 76 1012.5
20260903214233 81 0.0 0.0 0.00 0.22 0.00 75 1012.2
20260903213233 81 0.0 0.0 0.00 0.22 0.00 74 1012.4
20260903212233 81 0.0 0.0 0.00 0.22 0.00 75 1012.2
20260903211233 82 0.0 0.0 0.00 0.22 0.00 74 1012.5
20260903210233 81 0.0 0.0 0.00 0.22 0.00 73 1012.4
20260903205253 82 46 0.0 1.0 0.00 0.22 0.00 70 1012.8
20260903204253 82 5 0.0 2.0 0.00 0.22 0.00 70 1012.7
20260903203233 82 0.0 0.0 0.00 0.22 0.00 70 1012.8
20260903202234 82 322 0.0 2.0 0.00 0.22 0.00 68 1012.7
20260903201233 84 350 2.0 8.0 0.00 0.22 0.00 66 1012.8
20260903200234 84 336 0.0 5.0 0.00 0.22 0.00 66 1012.8
20260903195233 84 0.0 0.0 0.00 0.22 0.00 65 1012.8
20260903194234 84 18 0.0 5.0 0.00 0.22 0.00 66 1012.9
20260903193233 84 0.0 0.0 0.00 0.22 0.00 64 1013.2
20260903192233 84 0.0 0.0 0.00 0.22 0.00 68 1013.1
20260903191233 82 323 0.0 2.0 0.00 0.22 0.00 68 1013.3
20260903190234 82 294 0.0 4.0 0.00 0.22 0.00 67 1013.0
20260903185233 83 303 0.0 1.0 0.00 0.22 0.00 67 1013.2
20260903184233 83 264 0.0 4.0 0.00 0.22 0.00 68 1013.3
20260903183233 83 294 0.0 1.0 0.00 0.22 0.00 68 1013.3
20260903182234 83 323 0.0 1.0 0.00 0.22 0.00 69 1013.2
20260903181233 82 294 0.0 2.0 0.00 0.22 0.00 71 1013.5
20260903180314 82 0.0 0.0 0.00 0.22 0.00 73 1013.3
20260903175233 81 0.0 0.0 0.00 0.22 0.00 72 1013.4
20260903174234 82 238 0.0 4.0 0.00 0.22 0.00 71 1013.4
20260903173233 80 312 1.0 5.0 0.00 0.22 0.00 72 1013.6
20260903172254 81 11 0.0 4.0 0.00 0.22 0.00 72 1013.5
20260903171233 82 328 0.0 4.0 0.00 0.22 0.00 70 1013.6
20260903170254 81 22 0.0 1.0 0.00 0.22 0.00 73 1013.3
20260903165253 80 307 0.0 2.0 0.00 0.22 0.00 73 1013.6
20260903164234 80 294 0.0 5.0 0.00 0.22 0.00 74 1013.7
20260903163313 81 287 0.0 4.0 0.00 0.22 0.00 75 1013.9
20260903162234 80 289 1.0 7.0 0.00 0.22 0.00 79 1013.9
20260903161233 80 343 0.0 5.0 0.00 0.22 0.00 80 1014.2
20260903160234 78 0.0 0.0 0.00 0.22 0.00 84 1013.8
20260903155233 78 274 2.0 8.0 0.00 0.22 0.00 83 1014.2
20260903154254 77 343 0.0 1.0 0.00 0.24 0.00 86 1014.1
20260903153233 76 353 0.0 2.0 0.00 0.26 0.00 87 1014.4
20260903152314 76 286 1.0 7.0 0.00 0.28 0.00 88 1014.2
20260903151253 76 295 3.0 10.0 0.00 0.30 0.00 89 1014.4
20260903150334 74 289 3.0 8.0 0.00 0.34 0.00 93 1014.4
20260903145233 74 0.0 0.0 0.00 0.44 0.00 95 1014.5
20260903144254 73 334 0.0 7.0 0.00 0.50 0.00 96 1014.3
20260903143233 73 299 1.0 5.0 0.00 0.54 0.00 96 1014.4
20260903142234 73 318 0.0 2.0 0.00 0.58 0.00 97 1014.2
20260903141233 72 233 0.0 4.0 0.00 0.61 0.00 97 1014.4
20260903140234 72 283 0.0 4.0 0.00 0.65 0.00 97 1014.0
20260903135233 72 348 0.0 5.0 0.00 1.04 0.00 98 1014.2
20260903134234 71 286 0.0 2.0 0.00 1.30 0.00 98 1014.1
20260903133233 71 311 0.0 2.0 0.00 1.37 0.00 98 1014.2
20260903132234 70 323 0.0 1.0 0.00 1.39 0.00 99 1013.1
20260903131233 70 0.0 0.0 0.00 1.39 0.00 99 1014.2
20260903130234 70 0.0 0.0 0.00 1.40 0.00 99 1013.1
20260903125233 69 0.0 0.0 0.00 1.40 0.00 99 1014.3
20260903124234 69 0.0 0.0 0.00 1.40 0.00 99 1013.2
20260903123253 69 0.0 0.0 0.00 1.40 0.00 99 1014.1
20260903122254 69 0.0 0.0 0.00 1.40 0.00 99 1013.2
20260903121233 69 0.0 0.0 0.00 1.40 0.00 99 1014.1
20260903120254 69 0.0 0.0 0.00 1.40 0.00 99 1012.9
20260903115233 68 0.0 0.0 0.00 1.40 0.00 99 1014.1
20260903114234 68 0.0 0.0 0.00 1.40 0.00 99 1012.9
20260903113233 68 0.0 0.0 0.00 1.40 0.00 99 1013.7
20260903112254 68 0.0 0.0 0.00 1.40 0.00 99 1012.6
20260903111233 67 0.0 0.0 0.00 1.40 0.00 99 1013.7
20260903110254 67 0.0 0.0 0.00 1.40 0.00 99 1012.3
20260903105233 67 0.0 0.0 0.00 1.40 0.00 99 1013.4
20260903104234 66 0.0 0.0 0.00 1.40 0.00 99 1012.3
20260903103233 66 0.0 0.0 0.00 1.40 0.00 99 1013.3
20260903102234 66 0.0 0.0 0.00 1.40 0.00 99 1012.3
20260903101233 66 0.0 0.0 0.00 1.40 0.00 99 1013.4
20260903100234 67 0.0 0.0 0.00 1.40 0.00 99 1012.2
20260903095233 67 0.0 0.0 0.00 1.40 0.00 99 1013.5
20260903094355 67 0.0 0.0 0.00 1.40 0.00 99 1012.3
20260903093233 67 0.0 0.0 0.00 1.40 0.00 99 1013.4
20260903092234 67 0.0 0.0 0.00 1.40 0.00 99 1013.4
20260903091233 67 0.0 0.0 0.00 1.40 0.00 99 1013.1
20260903090234 67 0.0 0.0 0.00 1.40 0.00 99 1013.3
20260903085233 67 0.0 0.0 0.00 1.40 0.00 99 1013.0
20260903084234 67 0.0 0.0 0.00 1.40 0.00 99 1013.3
20260903083233 67 0.0 0.0 0.00 1.40 0.00 99 1013.2
20260903082234 67 0.0 0.0 0.00 1.40 0.00 99 1013.1
20260903081233 67 0.0 0.0 0.00 1.40 0.00 99 1013.2
20260903080235 66 0.0 0.0 0.00 1.40 0.00 99 1013.3
20260903075253 66 0.0 0.0 0.00 1.40 0.00 99 1013.0
20260903074235 66 0.0 0.0 0.00 1.40 0.00 99 1013.4
20260903073253 66 0.0 0.0 0.00 1.40 0.00 99 1013.5
20260903072234 66 0.0 0.0 0.00 1.40 0.00 99 1013.6
20260903071253 67 0.0 0.0 0.00 1.40 0.00 99 1013.5
20260903070234 67 0.0 0.0 0.00 1.40 0.00 99 1013.8
20260903065233 67 0.0 0.0 0.00 1.40 0.00 99 1013.8
20260903064234 66 0.0 0.0 0.00 1.40 0.00 99 1013.5
20260903063233 67 0.0 0.0 0.00 1.40 0.00 99 1013.3
20260903062235 67 0.0 0.0 0.00 1.40 0.00 99 1013.7
20260903061253 67 0.0 0.0 0.00 1.40 0.00 99 1013.6
20260903060234 67 0.0 0.0 0.00 1.40 0.00 99 1013.5
20260903055233 67 0.0 0.0 0.00 1.40 0.00 99 1013.3
20260903054234 67 0.0 0.0 0.00 1.40 0.00 99 1013.5
20260903053253 67 0.0 0.0 0.00 1.40 0.00 99 1013.4
20260903052235 67 0.0 0.0 0.00 1.40 0.00 99 1013.2
20260903051233 67 0.0 0.0 0.00 1.40 0.00 99 1013.3
20260903050235 67 0.0 0.0 0.00 1.40 0.00 99 1013.4
20260903045253 67 0.0 0.0 0.00 1.40 0.00 99 1013.4
20260903044254 67 0.0 0.0 0.00 1.40 0.00 99 1013.3
20260903043233 68 0.0 0.0 0.00 1.40 0.00 99 1013.2
20260903042235 68 0.0 0.0 0.00 1.40 0.00 99 1013.7
20260903041253 68 0.0 0.0 0.00 1.40 0.00 99 1013.7
20260903040235 68 0.0 0.0 0.00 1.40 0.00 99 1014.0
20260903035233 68 0.0 0.0 0.00 1.40 1.40 99 1013.9
20260903034235 68 0.0 0.0 0.00 1.40 1.40 99 1013.8
20260903033233 68 341 0.0 4.0 0.00 1.40 1.40 99 1014.0
20260903032255 68 303 0.0 2.0 0.02 1.40 1.40 99 1013.7
20260903031233 68 0.0 0.0 0.02 1.40 1.40 99 1013.2
20260903030255 68 0 0.0 2.0 0.02 1.40 1.40 99 1012.3
20260903025233 68 247 0.0 7.0 0.03 1.39 1.39 99 1011.9
20260903024235 69 346 0.0 1.0 0.06 1.39 1.39 99 1012.2
20260903023233 69 0.0 0.0 0.09 1.39 1.39 99 1012.7
20260903022235 70 0.0 0.0 0.10 1.38 1.38 99 1013.3
20260903021233 70 0.0 0.0 0.13 1.38 1.38 99 1013.8
20260903020235 71 0.0 0.0 0.15 1.37 1.37 99 1013.4
20260903015233 72 24 0.0 1.0 0.15 1.35 1.35 99 1012.8
20260903014255 72 32 0.0 4.0 0.13 1.32 1.32 99 1014.1
20260903013233 72 252 0.0 2.0 0.11 1.29 1.29 99 1014.1
20260903012235 72 327 0.0 11.0 0.09 1.27 1.27 99 1013.5
20260903011233 72 99 0.0 10.0 0.06 1.24 1.24 99 1012.7
20260903010235 73 0.0 0.0 0.03 1.22 1.22 99 1014.8
20260903005233 73 0.0 0.0 0.02 1.20 1.20 97 1014.5
20260903004255 74 0.0 0.0 0.00 1.18 1.18 95 1014.5
20260903003254 75 0.0 0.0 0.00 1.18 1.18 93 1014.2
20260903002235 75 0.0 0.0 0.00 1.18 1.18 93 1014.6
20260903001233 75 0.0 0.0 0.00 1.18 1.18 93 1013.9
20260903000235 75 0.0 0.0 0.00 1.18 1.18 93 1013.8
20260902235233 75 282 1.0 8.0 0.00 1.18 1.18 93 1013.2
20260902234235 75 305 0.0 1.0 0.00 1.18 1.18 92 1013.3
20260902233233 76 100 0.0 4.0 0.00 1.18 1.18 92 1013.2
20260902232235 76 77 0.0 1.0 0.00 1.18 1.18 91 1013.6
20260902231233 76 0.0 0.0 0.00 1.18 1.18 91 1013.7